Terminal Aerodrome Forecast
Issued by NWS Pittsburgh, PA

Current Version | Previous Version | Graphics & Text | Print | Product List | Glossary On
Versions: 1 2 3 4 5 6 7 8 9 10 11 12 13 14 15 16 17 18 19 20 21 22 23 24 25 26 27 28 29 30 31 32 33 34
000
FTUS41 KPBZ 171500 AAA
TAFPIT
TAF AMD
KPIT 171507Z 1715/1818 26010G20KT P6SM -SHSN OVC018
     FM171700 26010G18KT P6SM OVC022
     FM180200 25006KT P6SM BKN025
     FM180600 28008KT P6SM OVC015=

USA.gov is the U.S. government's official web portal to all federal, state and local government web resources and services.